sat.trackr.live / text

‹ back to catalog

STARLINK-36798

NORAD 67798 · 2026-032B

PAYLOAD ACTIVE UNKNOWN

§ Identity

Operator
Country
US
Launch date
2026-02-15
Launch site
AFWTR
Launch vehicle
Mass (kg)
RCS (m²)

Purposes: comms

External: N2YO · Heavens-Above · Gunter

§ Orbital elements

Epoch: 2026-09-19T18:53:59.768448Z

Period
93.91 min
Inclination
97.2882°
Eccentricity
0.0000735
Mean motion
15.33461708 rev/d
Perigee alt
465.0 km
Apogee alt
466.0 km
Semi-major
6,843.6 km
B*
4.4394e-4
RAAN
89.1681°
Arg perigee
115.3364°
Mean anomaly
244.7955°
Rev number
3,470

§ Raw data

STARLINK-367981 67798U 26032B   26262.78749732  .00014291  00000+0  44394-3 0  99982 67798  97.2882  89.1681 0000735 115.3364 244.7955 15.33461708 34704

JSON: /api/v1/satellites/67798 · /tle

For live sub-satellite position, see the globe view (requires WebGL).

§ Visibility from observer

Set your observer location to see the next 7 days of passes ≥ 10°. The values pass through the URL so the page stays shareable.

No JS? Fill the form by hand. The geolocation button needs JavaScript.